Orlando Golden Classic - INVENTORY ALL BIRDS (INCLUDES LAST GROUP

Station: Inventory - T Race

Distance: 1 Miles    

Release: 03-Jun-2022 16:44

Weather Release:    Arrival:

Wind at Release:     Wind at Arrival:

Temp at Release: °    Temp at Arrival: °

Lofts: 268

Birds: 1348

Clocked: 1331

Good Luck to Everyone!
Drops Pos Breeder Pigeon Name Color Sex Ent Arrival Speed To Win Elg Pd
1 Javier Gonzalez Loft - FL 38802-AU22-ARPU BB C 1 16:53:39.08 182.358 00:00:00 Yes
2 379 Loft - FL 3315-AU22-HRPC Ilucion BC C 1 16:53:39.10 182.352 00:00:00 Yes
3 98 M J Loft - PA 9833-AU22-JIAN BB C 1 16:53:39.12 182.346 00:00:00 Yes
4 Uliser All Stars - FL 20747-AU22-AA BBWF C 1 16:53:39.13 182.342 00:00:00 Yes
5 Rivera \Holguin Loft - FL 0245-AU22-RIVE BB C 1 16:53:39.22 182.314 00:00:00 Yes
6 Anunaki - FL 2714-AU22-GHC BC H 1 16:53:39.23 182.311 00:00:00 Yes
7 Dacora Loft Victor-Gato - TX 8626-AU22-AA BB C 1 16:53:40.06 182.050 00:00:01 Yes
8 Ray And Jay - FL 0208-AU22-SCRL BB C 1 16:53:40.07 182.047 00:00:01 Yes
9 Castellon Loft - TN 11008-AU22-NASH BBSP H 1 16:53:42.26 181.362 00:00:03 Yes
10 Right Wing Field - WA 1321-AU22-WING BB C 1 16:54:11.49 172.693 00:00:32 Yes
11 Genesis Syndicate Loft - AZ 0645-AU22-GENE BBWF C 1 16:54:11.58 172.668 00:00:32 Yes
12 Dacora Loft Victor-Gato - TX 0002-AU22-DACO BC C 2 16:54:12.35 172.450 00:00:33 Yes
13 A P C Loft - TX 22074-AU22-APC BB C 1 16:54:12.68 172.358 00:00:34 Yes
14 Rabi Loft - FL 2800-AU22-SAR Tanke 1 BC C 1 16:54:12.69 172.355 00:00:34 Yes
15 Rodriguez Loft - TX 22638-AU22-WIN 18479 (#1)-003 (VH) BB H 1 16:54:14.71 171.788 00:00:36 Yes
16 Baldwin & Tillson - NC 2148-AU22-TENT BC H 1 16:54:15.47 171.576 00:00:36 Yes
17 99 Problems - FL 0011-AU22-ARRO BBWF H 1 16:54:16.32 171.340 00:00:37 Yes
18 Family Loft - IN 0083-AU22-FAMI BB C 1 16:54:42.33 164.401 00:01:03 Yes
19 Saul/Leo - FL 9322-AU22-GHC WHIT C 1 16:54:45.28 163.650 00:01:06 Yes
20 Manicaragua Loft Ramo And Gato - TX 0004-AU22-MIRA BBWF H 1 16:54:51.37 162.120 00:01:12 Yes
21 Cr7 Loft - CA 36008-AU22-ARPU Corchita BBWF H 1 16:55:20.28 155.230 00:01:41 Yes
22 Mvp Loft - FL 70638-AU22-ARPU Home six BBWF C 1 16:55:32.79 152.427 00:01:54 Yes
23 J L Loft - GA 0030-AU22-JL BB H 1 16:55:33.06 152.368 00:01:54 Yes
24 Castellon Loft - TN 11025-AU22-NASH BB H 2 16:55:36.39 151.639 00:01:57 Yes
25 Candela D pigeon loft - GA 0246-AU22-NEA New innovation BB H 1 16:55:36.74 151.563 00:01:58 Yes
26 Oscar Rodriguez Loft - FL 0051-AU22-JAX BB H 1 16:55:41.23 150.593 00:02:02 Yes
27 Genesis Syndicate Loft - AZ 0001-AU22-GENE BBWF C 2 16:56:04.31 145.794 00:02:25 Yes
28 Karinas Loft - FL 47801-AU22-ARPU BB H 1 16:56:04.92 145.671 00:02:26 Yes
29 Double D Loft - FL 0004-AU22-FEC BLK H 1 16:56:08.28 144.999 00:02:29 Yes
30 Alas de Oro - NV 0530-IF22-E BB C 1 16:56:47.75 137.545 00:03:09 Yes
31 Bionic Loft - LA 0279-AU22-CAJU BBWF H 1 16:57:03.03 134.861 00:03:24 Yes
32 Furlano & Rotiroti - ON 11090-CU22-CRPU The Mistake x Neymar BB H 1 16:57:13.52 133.078 00:03:34 Yes
33 Primo Loft - FL 4219-AU22-HRPC BB H 1 16:57:17.30 132.447 00:03:38 Yes
34 Cubas Lofts - FL 5783-AU22-AA BBWF C 1 16:57:26.52 130.933 00:03:47 Yes
35 Santico Lof - FL 1799-AU22-HRPC BC H 1 16:57:28.97 130.536 00:03:50 Yes
36 Tao Loft - MN 2213-AU22-AA BC C 1 16:57:31.27 130.166 00:03:52 Yes
37 Las Tunas Lofts - FL 0019-AU22-TUNA BB C 1 16:57:46.74 127.731 00:04:08 Yes
38 Irish Syndicate - AZ 7022-AU22-IRIS BC H 1 16:57:58.64 125.918 00:04:20 Yes
39 Pety Loft - FL 0016-AU22-PETY BB H 1 16:58:43.68 119.500 00:05:05 Yes
40 A Different Breed - 12901-AU22-AA BC H 1 16:59:24.47 114.228 00:05:45 Yes
41 Dac Family Loft - MI 0010-AU22-DAC BB H 1 16:59:46.62 111.555 00:06:08 Yes
42 Barbaro RG Loft - FL 1301-AU22-JAX BC H 1 17:00:10.82 108.774 00:06:32 Yes
43 Capote Loft - FL 34207-AU22-AA Mr Perfect BC C 1 17:00:22.39 107.493 00:06:43 Yes
44 Los Tiburones De Colon - FL 34683-AU22-AA BC H 1 17:00:22.41 107.491 00:06:43 Yes
45 3 Stars & A Sun - TX 0409-AU22-3STA BB C 1 17:00:47.54 104.810 00:07:08 Yes
46 Lazaro Espinoza - FL 27900-AU22-JEDD BC H 1 17:02:17.22 96.243 00:08:38 Yes
47 Aaron Loft - FL 9100-AU22-AA BCWF H 1 17:02:35.13 94.697 00:08:56 Yes
48 Quality Loft - FL 0022-AU22-JACK BB C 1 17:03:46.76 88.982 00:10:08 Yes
49 Green Arrow Loft - FL 0022-AU22-ARRO 32038 ---4194-95 BB H 1 17:03:55.06 88.364 00:10:16 Yes
50 Pagalday Loft - FL 0328-AU22-PAGA BB C 1 17:04:53.99 84.211 00:11:15 Yes
51 Matsuzaka - FL 0723-AU22-CCIF BB H 1 17:06:35.18 77.923 00:12:56 Yes
52 Lsu Loft - LA 0875-AU22-LSU BC C 1 17:07:05.75 76.204 00:13:27 Yes
53 Mercury Lofts - GA 0023-AU22-MERC BB H 1 17:07:52.49 73.718 00:14:13 Yes
54 Erp-Duviel Team - GA 2712-AU22-NEA BC H 1 17:08:18.11 72.423 00:14:39 Yes
55 Family Loft - IN 0059-AU22-FAMI BB C 2 17:08:20.24 72.317 00:14:41 Yes
56 Gibara Loft - FL 2677-AU22-HRPC BB H 1 17:08:34.57 71.614 00:14:55 Yes
57 BFL 3 - MI 0723-AU22-GRM BC H 1 17:09:02.64 70.276 00:15:24 Yes
58 Mikimbin & The Cuban Indian Loft - FL 12925-AU22-AA BB C 1 17:09:44.44 68.374 00:16:05 Yes
59 La Federacion Ms - 0002-AU22-FURI BB H 1 17:09:56.54 67.843 00:16:17 Yes
60 Brito Loft - FL 94477-AU22-ARPU BC H 1 17:10:03.96 67.521 00:16:25 Yes
61 Andy Owen - GA 0252-AU22-OWEN BBWF H 1 17:11:08.64 64.839 00:17:30 Yes
62 La Bala - CO 2418-AU22-PPH BB H 1 17:11:08.96 64.827 00:17:30 Yes
63 Raizen Loft - WA 4400-AU22-RAIZ BB H 1 17:11:10.52 64.765 00:17:31 Yes
64 Candela D pigeon loft - GA 0244-AU22-NEA Ruth 1 BC H 2 17:11:59.76 62.866 00:18:21 Yes
65 Aztec Loft - DE 0335-AU22-AZTE BBSP H 1 17:12:31.78 61.690 00:18:53 Yes
66 Los Cubanitos Loft - FL 0402-AU22-JEDD I have a good one BB H 1 17:12:32.77 61.655 00:18:54 Yes
67 A-Lo-Loft - NY 0033-AU22-ALOL ☯️☯️☯️☯️ BC H 1 17:12:34.94 61.576 00:18:56 Yes
68 La Bala - CO 2545-AU22-PPH BCWF H 2 17:13:14.66 60.183 00:19:36 Yes
69 JAZZY LOFT - FL 0222-AU22-JAZZ Versatile BB H 1 17:13:18.55 60.049 00:19:39 Yes
70 Anunaki - FL 2713-AU22-GHC BB H 2 17:13:19.04 60.033 00:19:40 Yes
71 Sagua Loft - FL 46100-AU22-ARPU Bandurria BBWF C 1 17:13:42.66 59.237 00:20:04 Yes
72 Sigua Pigeons - FL 0428-AU22-SIGU Kiss of the snake BB H 1 17:13:43.43 59.212 00:20:04 Yes
73 Ramirez Loft - TX 0037-MX22-RAMI BBWF H 1 17:14:11.98 58.279 00:20:33 Yes
74 Fl Zhang Loft - FL 37468-AU22-ARPU BC C 1 17:14:23.22 57.920 00:20:44 Yes
75 Segredo - FL 4712-AU22-ARPU la avispa BB H 1 17:14:25.19 57.857 00:20:46 Yes
76 Ganus Family Loft - IN 0706-AU22-GFL SPL C 1 17:14:33.05 57.609 00:20:54 Yes
77 DOUBLE LUCKY - FL 0218-AU22-JAZZ Trigger BCWF C 1 17:14:47.90 57.146 00:21:09 Yes
78 Johnny Eason - NC 2213-AU22-KY SLAT H 1 17:14:53.95 56.959 00:21:15 Yes
79 Nemelka Racing Pigeon Loft - UT 2030-AU22-NRPL 😎😎😎😎😎LK BB C 1 17:14:57.32 56.856 00:21:18 Yes
80 Bore Tech Loft - FL 36115-AU22-ARPU BC H 1 17:15:07.62 56.543 00:21:29 Yes
81 A P C Loft - TX 22038-AU22-APC GRIZ H 2 17:15:20.10 56.167 00:21:41 Yes
82 Chachi Loft - FL 27967-AU22-JEDD BB H 1 17:15:29.99 55.873 00:21:51 Yes
83 Rudy loft - FL 0089-AU22-GTEA RUDY 89 BB H 1 17:15:34.58 55.738 00:21:55 Yes
84 K-P-L-Family Loft - MI 2744-AU22-ARPU BB C 1 17:15:52.02 55.230 00:22:13 Yes
85 Ron Talbot /Jimmy Fernandez - LA 4066-AU22-BAYO GRIZ H 1 17:15:57.18 55.081 00:22:18 Yes
86 Las Tunas Lofts - FL 0014-AU22-TUNA CHOC H 2 17:16:04.73 54.865 00:22:26 Yes
87 R15 - FL 46077-AU22-ARPU BB C 1 17:16:23.83 54.326 00:22:45 Yes
88 Guerra-Rodriguez-Varela - FL 0111-AU22-MV GRIZ H 1 17:16:25.50 54.279 00:22:46 Yes
89 Green Arrow Loft - FL 0020-AU22-ARRO RED CBS --- 04 EMILY BBWF H 2 17:16:46.64 53.696 00:23:08 Yes
90 Xiao F Jiang Loft - FL 21708-AU22-ARPU BC H 1 17:16:51.85 53.554 00:23:13 Yes
91 Elton Dinga - TX 23114-AU22-AA Jansen 033 x Kruger 2983 BB C 1 17:16:58.29 53.379 00:23:19 Yes
92 Ciro & Yosellaj Loft. - FL 1101-AU22-HRPC DC H 1 17:16:59.76 53.340 00:23:21 Yes
93 Fong Loft - FL 38800-AU22-ARPU BB H 1 17:17:28.23 52.584 00:23:49 Yes
94 Pety Loft - FL 0023-AU22-PETY BB C 2 17:17:33.35 52.450 00:23:54 Yes
95 Family Loft - IN 0084-AU22-FAMI BB H 3 17:18:13.52 51.424 00:24:34 Yes
96 Jax Zhao - FL 13699-AU22-AA BB H 1 17:18:47.21 50.594 00:25:08 Yes
97 Oscar Rodriguez Loft - FL 0052-AU22-JAX BBWF C 2 17:18:49.52 50.538 00:25:10 Yes
98 Machado Loft - FL 66711-AU22-ARPU BB C 1 17:19:07.27 50.112 00:25:28 Yes
99 Carrerafrenchie Loft - FL 0064-AU22-RFL BC C 1 17:19:16.39 49.896 00:25:37 Yes
100 Gibara Loft - FL 2639-AU22-HRPC BB C 2 17:20:24.51 48.340 00:26:45 Yes

There are 1331 bird records

Note: These Race Results are unofficial and subject to change until verified by the Race Committee and declared final.

 

UNTIL FUTHER NOTICE

Ship Birds to:

California Classic attn: John

P.O Box 5861 Yuma, AZ 85366

cell 619-454-7696


windy
Click for Forecast for 32825 from weatherUSA